Regional Weather Roundup
Issued by NWS Cleveland, OH

Home | Current Version | Previous Version | Graphics & Text | Print | Product List | Glossary On
Versions: 1 2 3 4 5 6 7 8 9 10 11 12 13 14 15 16 17 18 19 20 21 22 23 24 25 26 27 28 29 30 31 32 33 34 35 36 37 38 39 40 41 42 43 44 45 46 47 48 49 50
318
ASUS41 KCLE 300012
RWRCLE
OHIO REGIONAL WEATHER ROUNDUP
NATIONAL WEATHER SERVICE WILMINGTON, OH
800 PM EDT WED MAR 29 2017

NOTE: "FAIR" INDICATES FEW OR NO CLOUDS BELOW 12,000 FEET WITH NO
SIGNIFICANT WEATHER AND/OR OBSTRUCTIONS TO VISIBILITY.

OHZ001>008-015>018-024>027-034-035-043-044-300100-
   NORTHWEST OHIO

CITY           SKY/WX    TMP DP  RH WIND       PRES   REMARKS
DEFIANCE       FAIR      47  31  53 E12       30.16F
FINDLAY        FAIR      49  30  48 NE17G23   30.15F
TOLEDO EXPRESS FAIR      48  30  49 E10       30.20S
TOLEDO EXEC    FAIR      47  33  58 E6        30.23R
LIMA           FAIR      48  34  58 NE15      30.13F
$$

OHZ009>014-019>023-028>033-038-089-300100-
   NORTHEAST OHIO

CITY           SKY/WX    TMP DP  RH WIND       PRES   REMARKS
CLE-HOPKINS    MOCLDY    49  30  48 NE12      30.25S
CLE-LAKEFRONT  FAIR      43  36  76 NE9       30.23F
CUY CO. ARPT   MOCLDY    48  32  53 NE12      30.24S
LORAIN-ELYRIA  FAIR      47  30  51 E12       30.21F
ASHTABULA      FAIR      47  30  51 CALM      30.25S
AKRON-CANTON   FAIR      51  31  46 NE13      30.19S
WOOSTER        FAIR      48  34  58 NE10      30.19F
MANSFIELD      FAIR      46  32  58 NE9       30.18F
YOUNGSTOWN     MOCLDY    48  30  49 N10       30.23R
$$

OHZ042-051>053-060>062-070>072-077>081-300100-
  SOUTHWEST OHIO

CITY           SKY/WX    TMP DP  RH WIND       PRES   REMARKS
CINC-COVINGTON MOCLDY    55  45  68 E14       30.07R
CINC-LUNKEN    FAIR      54  47  77 NE5       30.09S
HAMILTON       FAIR      56  44  64 E9        30.09R
DAYTON         MOCLDY    55  38  52 E10       30.10S
WRIGHT-PAT AFB FAIR      57  37  47 NE9       30.09F
DAYTON GENERAL FAIR      56  40  55 E8        30.07F
WILMINGTON     FAIR      54  43  66 E6        30.08F
$$

OHZ036-037-039>041-045>050-054>059-063>069-073>076-082>088-300100-
  CENTRAL AND SOUTHEAST OHIO

CITY           SKY/WX    TMP DP  RH WIND       PRES   REMARKS
COLUMBUS       MOCLDY    58  38  47 NE12      30.12F
OSU AIRPORT    FAIR      56  37  49 NE13      30.11F
BOLTON FIELD   NOT AVBL
RICKENBACK AFB FAIR      55  37  51 E8        30.11S
NEWARK         FAIR      58  33  39 NE6       30.13R
MARION         FAIR      49  37  63 NE16      30.15F
LANCASTER      FAIR      57  39  51 NE7       30.12F
ZANESVILLE     FAIR      57  34  41 NE8       30.13F
NEW PHILLY     FAIR      55  32  41 NE6       30.17S
$$




USA.gov is the U.S. government's official web portal to all federal, state and local government web resources and services.